Cape Town, South Africa

12:23 AM SAST on March 26, 2017 (GMT +0200)
Cape Town International

Weather History for FACT - March, 2013

Change the Weather History Date:

Sunday, March 10, 2013

  Actual Average Record
Temperature  
Mean Temperature 68 °F -  
Max Temperature 84 °F 74 °F 95 °F (2009)
Min Temperature 51 °F 56 °F 50 °F (1998)
Cooling Degree Days 2    
Growing Degree Days 18 (Base 50)    
Moisture  
Dew Point 52 °F    
Average Humidity 52    
Maximum Humidity 77    
Minimum Humidity 21    
Precipitation  
Precipitation 0.00 in 0.04 in - ()
Sea Level Pressure  
Sea Level Pressure 30.05 in    
Wind  
Wind Speed 7 mph ()    
Max Wind Speed 15 mph    
Max Gust Speed -    
Visibility 19.0 miles    
Events      
Averages and records for this station are not official NWS values.
T = Trace of Precipitation, MM = Missing Value Source: Averaged Metar Reports

Daily Weather History Graph

Daily Weather History Graph

Search for Another Location

Airport or City:

Trip Planner

Search our weather history database for the weather conditions in past years. The results will help you decide how hot, cold, wet, or windy it might be!

Date:

Astronomy

Mar. 10, 2013 Rise Set
Actual Time 6:40 AM SAST 7:10 PM SAST
Civil Twilight 6:15 AM SAST 7:35 PM SAST
Nautical Twilight 5:46 AM SAST 8:04 PM SAST
Astronomical Twilight 5:16 AM SAST 8:34 PM SAST
Moon 5:08 AM SAST (3/10) 6:06 PM SAST (3/10)
Length of Visible Light 13h 19m
Length of Day
12h 29m
Waning Crescent, 2% of the Moon is Illuminated
Mar 10
Waning Crescent
Mar 11
New
Mar 19
First Quarter
Mar 27
Full
Apr 3
Last Quarter

Hourly Weather History & Observations

Time (SAST) Temp. Heat Index Dew Point Humidity Pressure Visibility Wind Dir Wind Speed Gust Speed Precip Events Conditions
12:00 AM 62.6 °F - 50.0 °F 63% 30.12 in - SE 10.4 mph - N/A   Clear
1:00 AM 60.8 °F - 50.0 °F 68% 30.09 in - SE 12.7 mph - N/A   Clear
2:00 AM 58 °F - 48 °F 61% 30.10 in 25 mi 3.5 mph - -  
2:00 AM 57.2 °F - 46.4 °F 67% 30.09 in - East 4.6 mph - N/A   Clear
3:00 AM 55.4 °F - 46.4 °F 72% 30.06 in - Variable 1.2 mph - N/A   Clear
4:00 AM 53.6 °F - 46.4 °F 77% 30.06 in - North 3.5 mph - N/A   Clear
5:00 AM 56 °F - 46 °F 61% 30.06 in 25 mi 2.3 mph - -  
5:00 AM 57.2 °F - 46.4 °F 67% 30.06 in - Variable 2.3 mph - N/A   Clear
6:00 AM 55.4 °F - 46.4 °F 72% 30.06 in - Variable 2.3 mph - N/A   Clear
7:00 AM 59.0 °F - 50.0 °F 72% 30.06 in - WSW 3.5 mph - N/A   Clear
8:00 AM 61 °F - 50 °F 58% 30.09 in 25 mi 2.3 mph - -  
8:00 AM 60.8 °F - 50.0 °F 68% 30.06 in - West 3.5 mph - N/A   Clear
9:00 AM 68.0 °F - 53.6 °F 60% 30.09 in - SSE 3.5 mph - N/A   Clear
10:00 AM 71.6 °F - 50.0 °F 46% 30.09 in - SSW 4.6 mph - N/A   Clear
11:00 AM 76 °F - 50 °F 29% 30.09 in 25 mi SSW 4.6 mph - -  
11:00 AM 77.0 °F - 51.8 °F 41% 30.09 in - South 4.6 mph - N/A   Clear
12:00 PM 82.4 °F - 51.8 °F 35% 30.06 in - South 10.4 mph - N/A   Clear
1:00 PM 84.2 °F - 51.8 °F 33% 30.06 in - South 15.0 mph - N/A   Clear
2:00 PM 84 °F - 51 °F 21% 30.05 in 25 mi SSW 12.7 mph - -  
2:00 PM 84.2 °F 82.8 °F 53.6 °F 35% 30.04 in - SSW 13.8 mph - N/A   Clear
3:00 PM 84.2 °F - 51.8 °F 33% 30.04 in - South 13.8 mph - N/A   Clear
4:00 PM 84.2 °F 82.8 °F 53.6 °F 35% 30.01 in - SSW 13.8 mph - N/A   Clear
5:00 PM 82 °F - 56 °F 31% 30.01 in 25 mi SSW 13.8 mph - -  
5:00 PM 82.4 °F 81.7 °F 55.4 °F 39% 30.01 in - SW 13.8 mph - N/A   Clear
6:00 PM 82.4 °F 82.0 °F 57.2 °F 42% 29.98 in - South 13.8 mph - N/A   Clear
7:00 PM 77.0 °F - 59.0 °F 54% 29.98 in - Variable 5.8 mph - N/A   Clear
8:00 PM 73 °F - 54 °F 41% 30.02 in 19 mi South 9.2 mph - -  
8:00 PM 73.4 °F - 55.4 °F 53% 30.01 in - South 9.2 mph - N/A   Clear
9:00 PM 69.8 °F - 55.4 °F 60% 30.01 in - South 9.2 mph - N/A   Clear
10:00 PM 69.8 °F - 55.4 °F 60% 30.01 in - South 9.2 mph - N/A   Clear
11:00 PM 66 °F - 54 °F 56% 30.01 in 25 mi SSE 8.1 mph - -  
11:00 PM 66.2 °F - 53.6 °F 64% 30.01 in - SSE 8.1 mph - N/A   Clear